Total_Precipitation_Accumulation
0.04 0.03 0.04 0.07 0.13 0.18 0.25 0.28 0.31 0.49 0.57 0.47 0.46 0.48 0.50 0.55 0.81 1.52 1.01 0.62 0.42 0.32 0.35 0.37 0.38 0.36 0.34 0.31 0.33 0.27 0.25 0.30 0.34 0.33 0.37 0.41 0.34 0.31 0.31 0.35 0.45 0.56 0.58 0.51 0.47 0.49 0.53 0.54 0.44
0.05 0.05 0.05 0.08 0.13 0.20 0.29 0.26 0.37 0.49 0.51 0.51 0.50 0.59 0.60 0.52 0.43 0.48 0.59 0.49 0.33 0.29 0.36 0.37 0.40 0.40 0.37 0.32 0.33 0.30 0.30 0.33 0.39 0.43 0.46 0.51 0.43 0.38 0.40 0.43 0.48 0.60 0.64 0.58 0.51 0.49 0.52 0.52 0.44
0.05 0.07 0.06 0.06 0.13 0.27 0.34 0.34 0.43 0.49 0.49 0.55 0.65 0.70 0.70 0.69 0.53 0.57 0.62 0.48 0.36 0.35 0.37 0.38 0.36 0.40 0.44 0.43 0.42 0.41 0.38 0.41 0.46 0.53 0.59 0.65 0.59 0.52 0.51 0.52 0.53 0.63 0.67 0.68 0.61 0.56 0.56 0.53 0.50
0.05 0.05 0.06 0.09 0.17 0.21 0.26 0.38 0.46 0.51 0.55 0.54 0.55 0.74 0.82 0.78 0.65 0.63 0.61 0.55 0.46 0.49 0.50 0.40 0.40 0.43 0.57 0.57 0.53 0.52 0.50 0.51 0.58 0.62 0.63 0.69 0.65 0.62 0.67 0.70 0.70 0.75 0.77 0.79 0.76 0.76 0.73 0.62 0.66
0.03 0.05 0.07 0.15 0.22 0.22 0.23 0.41 0.50 0.53 0.54 0.57 0.69 0.88 0.98 1.02 0.86 0.74 0.66 0.66 0.68 0.76 0.73 0.55 0.50 0.50 0.62 0.60 0.59 0.57 0.56 0.58 0.67 0.70 0.67 0.70 0.67 0.64 0.74 0.88 0.87 0.94 0.98 0.89 0.84 0.87 0.87 0.81 0.87
0.04 0.04 0.11 0.18 0.25 0.26 0.27 0.35 0.45 0.55 0.64 0.64 0.81 1.03 1.32 1.39 1.21 1.02 0.79 0.76 0.73 0.88 0.84 0.61 0.53 0.55 0.68 0.71 0.66 0.64 0.61 0.66 0.77 0.81 0.75 0.70 0.69 0.72 0.80 0.92 1.00 1.09 1.08 0.93 0.89 0.89 0.90 1.04 1.11
0.02 0.04 0.09 0.14 0.22 0.27 0.28 0.39 0.54 0.61 0.77 0.80 0.91 1.16 1.50 1.55 1.27 1.07 0.98 0.88 0.78 0.86 0.90 0.76 0.75 0.73 0.73 0.74 0.78 0.83 0.75 0.79 0.87 0.86 0.89 0.81 0.79 0.91 0.99 1.00 1.05 1.11 1.12 0.99 0.92 0.94 0.87 0.95 1.12
0.02 0.06 0.10 0.16 0.21 0.22 0.27 0.40 0.62 0.74 0.88 0.95 1.13 1.22 1.72 1.73 1.43 1.29 1.26 1.26 1.33 1.51 1.54 1.33 1.23 1.09 0.92 0.80 0.79 0.81 0.83 0.94 1.06 0.98 0.93 0.92 0.91 0.98 1.11 1.08 1.09 1.04 0.98 0.96 0.94 1.00 1.00 0.92 0.91
0.01 0.05 0.10 0.13 0.18 0.22 0.30 0.46 0.57 0.72 0.92 0.95 1.02 1.04 1.42 1.49 1.52 1.70 1.78 1.95 2.08 2.24 2.29 1.93 1.53 1.29 1.25 1.07 0.90 0.97 0.93 0.97 1.06 1.07 1.02 1.07 1.29 1.43 1.46 1.28 1.35 1.22 1.09 1.07 1.09 1.04 0.99 0.92 0.90
0.01 0.04 0.07 0.10 0.14 0.20 0.34 0.52 0.60 0.65 0.84 0.91 0.94 1.01 1.20 1.50 1.70 1.91 2.26 2.79 2.72 2.55 2.50 2.21 1.73 1.81 1.92 1.51 1.37 1.32 1.21 1.17 1.16 1.29 1.30 1.38 1.81 1.88 1.60 1.63 1.60 1.57 1.42 1.33 1.32 1.28 1.15 1.02 0.98
0.01 0.04 0.06 0.10 0.18 0.26 0.40 0.54 0.66 0.83 0.97 1.02 1.11 1.28 1.46 1.75 1.80 1.93 2.33 2.86 2.99 2.63 2.28 1.93 1.86 1.92 2.09 1.98 1.86 1.76 1.73 1.77 1.77 1.81 1.82 1.99 2.05 1.87 1.68 1.88 1.78 1.79 1.73 1.70 1.77 1.60 1.37 1.30 1.31
0.02 0.03 0.07 0.14 0.21 0.29 0.47 0.66 0.76 1.02 1.17 1.21 1.22 1.29 1.60 1.77 1.77 2.08 2.63 2.56 2.56 2.52 2.33 2.24 2.24 2.17 2.28 2.56 2.50 2.33 2.29 2.20 2.08 2.11 2.03 2.31 2.46 2.31 2.27 2.29 2.19 2.29 2.34 2.36 2.15 1.93 1.70 1.59 1.45
0.03 0.05 0.09 0.15 0.28 0.31 0.45 0.71 0.69 0.83 0.99 1.04 1.04 1.13 1.42 1.72 1.95 2.39 2.73 2.76 2.71 2.72 2.54 2.49 2.56 2.56 2.62 2.95 3.08 2.83 2.73 2.54 2.35 2.30 2.34 2.47 2.54 2.53 2.65 2.62 2.74 2.64 2.53 2.42 2.28 1.99 1.96 1.83 1.66
0.05 0.08 0.13 0.19 0.31 0.37 0.40 0.52 0.56 0.73 0.85 0.97 1.18 1.17 1.34 1.66 2.13 2.49 2.71 2.87 2.96 2.99 2.76 2.64 2.69 2.63 2.66 2.84 3.04 3.04 2.92 2.95 2.80 2.61 2.57 2.58 2.69 2.80 2.84 2.89 2.85 2.68 2.50 2.53 2.50 2.32 2.29 2.16 1.99
0.08 0.11 0.19 0.24 0.29 0.34 0.34 0.46 0.59 0.67 0.78 0.89 1.18 1.37 1.48 1.92 2.19 2.32 2.52 2.91 3.10 3.22 3.21 3.08 3.03 3.10 2.99 2.97 3.05 3.02 3.00 3.16 3.06 3.02 3.03 2.85 2.77 2.86 2.92 3.01 2.96 2.83 2.73 2.70 2.66 2.63 2.55 2.38 2.23
0.14 0.14 0.21 0.26 0.32 0.30 0.34 0.58 0.65 0.73 0.80 0.88 0.90 1.12 1.57 1.95 1.92 1.91 2.22 2.83 3.52 3.78 3.70 3.29 2.97 3.21 3.26 3.27 3.26 3.29 3.28 3.40 3.33 3.13 3.20 3.08 3.12 3.06 3.02 2.93 2.80 2.74 2.71 2.87 2.95 2.88 2.87 2.70 2.57
0.20 0.17 0.21 0.29 0.32 0.31 0.37 0.68 0.83 0.87 0.90 0.91 0.93 1.16 1.52 1.64 1.61 1.75 2.20 2.95 3.81 4.40 4.16 3.54 3.20 3.28 3.42 3.38 3.52 3.71 3.82 3.80 3.65 3.49 3.48 3.33 3.39 3.35 3.27 3.31 3.24 3.10 3.13 3.12 2.90 2.97 3.07 3.10 2.99
0.19 0.20 0.27 0.27 0.28 0.29 0.37 0.59 0.77 1.00 1.01 1.05 1.06 1.29 1.43 1.58 1.57 1.76 2.29 3.03 3.80 4.52 4.41 3.92 3.63 3.79 3.77 3.64 3.75 3.89 3.96 3.96 4.04 4.08 4.01 3.82 3.72 3.79 3.91 3.93 3.83 3.60 3.50 3.44 3.47 3.43 3.18 3.03 2.98
0.18 0.23 0.26 0.27 0.26 0.32 0.38 0.55 0.69 0.87 0.92 1.00 1.13 1.27 1.23 1.32 1.51 1.88 2.41 3.11 3.56 3.74 3.82 3.95 3.95 4.00 4.01 3.95 3.95 4.14 4.29 4.31 4.30 4.44 4.48 4.30 4.20 4.30 4.56 4.59 4.44 4.15 3.87 3.66 3.60 3.55 3.34 3.07 2.91
0.21 0.25 0.29 0.33 0.29 0.32 0.44 0.60 0.76 0.88 0.93 1.02 1.15 1.17 1.15 1.16 1.41 1.88 2.36 2.86 3.19 3.51 3.66 3.80 3.80 4.03 4.28 4.65 5.13 5.41 5.53 5.41 5.22 5.12 5.04 4.92 4.80 4.84 4.91 4.89 4.55 4.25 4.07 3.80 3.55 3.47 3.32 3.07 3.01
0.21 0.22 0.30 0.39 0.40 0.38 0.52 0.83 0.92 0.99 1.11 1.25 1.31 1.38 1.39 1.25 1.42 1.81 2.07 2.48 2.77 3.09 3.37 3.56 3.85 4.33 4.85 5.51 6.29 6.60 6.36 5.96 5.73 5.39 5.32 5.10 4.87 4.83 4.86 4.57 4.29 4.07 3.90 3.72 3.52 3.47 3.40 3.11 3.00
0.17 0.15 0.22 0.29 0.38 0.44 0.45 0.91 1.19 1.28 1.43 1.56 1.43 1.40 1.44 1.42 1.46 1.67 1.92 2.20 2.40 2.79 3.23 3.65 4.13 4.76 5.41 5.97 6.45 6.66 6.54 6.27 5.97 5.53 5.13 4.74 4.40 4.21 4.09 3.96 3.71 3.58 3.46 3.31 3.14 3.17 3.16 3.05 2.81
0.11 0.12 0.15 0.19 0.26 0.40 0.45 0.75 1.28 1.49 1.60 1.67 1.53 1.49 1.43 1.43 1.38 1.53 1.74 1.99 2.31 2.73 3.19 3.68 4.16 4.82 5.33 5.85 6.23 6.42 6.42 6.30 5.91 5.25 4.61 4.20 3.85 3.59 3.31 3.09 2.97 2.95 2.89 2.69 2.51 2.51 2.52 2.51 2.44
0.10 0.11 0.15 0.21 0.28 0.48 0.46 0.72 1.38 1.75 1.81 1.72 1.66 1.63 1.50 1.49 1.54 1.55 1.64 1.82 2.25 2.66 3.14 3.49 3.84 4.53 5.20 5.69 6.04 6.30 6.27 6.02 5.39 4.70 4.15 3.81 3.50 3.22 2.95 2.78 2.60 2.51 2.39 2.23 2.08 2.04 2.05 2.08 2.10
0.12 0.19 0.38 0.50 0.59 0.62 0.48 0.77 1.39 1.57 1.54 1.54 1.48 1.44 1.48 1.47 1.45 1.48 1.69 1.83 2.31 2.70 3.00 3.25 3.49 3.90 4.39 4.83 5.12 5.29 5.35 5.16 4.73 4.29 3.82 3.47 3.20 2.92 2.61 2.29 2.11 2.01 1.94 1.88 1.84 1.77 1.75 1.79 1.82
0.11 0.20 0.49 0.71 0.76 0.73 0.75 1.29 1.74 1.51 1.44 1.44 1.44 1.32 1.32 1.41 1.42 1.43 1.67 1.89 2.04 2.27 2.52 2.82 3.04 3.30 3.55 3.77 3.96 3.93 3.94 3.92 3.72 3.37 2.95 2.65 2.38 2.21 2.03 1.82 1.71 1.67 1.68 1.64 1.61 1.51 1.42 1.47 1.58
0.10 0.17 0.21 0.38 0.44 0.71 1.08 1.45 1.82 1.73 1.70 1.50 1.39 1.34 1.34 1.34 1.37 1.47 1.65 1.79 1.86 1.97 2.18 2.36 2.44 2.62 2.69 2.65 2.63 2.69 2.70 2.71 2.61 2.48 2.22 1.91 1.66 1.54 1.48 1.43 1.40 1.28 1.30 1.35 1.35 1.32 1.31 1.35 1.36
0.11 0.16 0.23 0.51 0.73 0.94 1.18 1.72 2.20 2.19 2.00 1.75 1.50 1.35 1.23 1.25 1.32 1.42 1.56 1.72 1.81 1.82 1.99 2.08 2.02 2.02 2.07 2.10 2.03 1.96 2.00 2.03 2.01 1.94 1.79 1.60 1.42 1.30 1.21 1.16 1.11 1.01 0.98 1.03 1.11 1.13 1.20 1.30 1.27
0.17 0.20 0.27 0.47 0.61 1.03 1.44 2.07 2.13 2.23 2.12 1.98 1.87 1.52 1.33 1.34 1.37 1.48 1.48 1.48 1.51 1.54 1.58 1.65 1.66 1.66 1.63 1.62 1.64 1.62 1.58 1.53 1.53 1.57 1.51 1.37 1.26 1.15 1.05 0.96 0.95 0.94 0.88 0.86 0.93 0.96 1.01 1.12 1.17
0.19 0.23 0.31 0.58 0.69 0.78 1.23 2.07 1.83 2.17 2.27 2.15 1.99 1.65 1.52 1.49 1.51 1.54 1.46 1.36 1.36 1.47 1.48 1.46 1.43 1.40 1.40 1.43 1.45 1.49 1.34 1.26 1.27 1.27 1.24 1.16 1.13 1.10 1.04 0.99 0.96 0.89 0.82 0.82 0.84 0.83 0.83 0.91 0.97